DMSP 5D-2 F13 DEB, 40583

Orbit data source: Space-Track

DMSP 5D-2 F13 DEB, 40583 is space debris in SSO originally from a launch on Fri, 24 Mar 1995 UTC launched from the Air Force Western Test Range (AFWTR). Debris objects in space refer to the collection of defunct objects orbiting the Earth. Examples of debris include non-operational satellites, rocket bodies, and fragments generated from explosions, collisions, or faulty payload assembly.

Loading next visibility...
Identifier
40583, 1995-015ES
Orbit
SSO
Country
Flag of USUS
Related business
Manufacturer
Unknown
Mission
Spacecraft
Bus & Motor
Unknown
Mass
Unknown
Launch date (UTC)
1995-03-24 (31 years ago)
Launch vehicle
Unknown
Launch site
Air Force Western Test Range (AFWTR)
Object type
Payload
Rocket body
Debris
Shape & HBR
Unknown shape, 0.1 m
Radar Cross Section
Small (<0.1 m²)

Expand to show TLE details & history
Last TLE update: 17 hours ago

TLE from 17 hours ago
0 DMSP 5D-2 F13 DEB
1 40583U 95015ES  26118.51757658  .00010549  00000-0  20484-2 0  9991
2 40583  98.5919 212.6811 0024441 230.7409 129.1623 14.63185305579432
Epoch: 2026-04-28T12:25Z
TLE epoch observation values (Epoch: 2026-04-28T12:25:18.616Z)
Latitude
-0.00004°
Longitude
169.86179°
Altitude
696.811 km
Speed
7.502 km/s
True Right ascension
14h 10m 43s
True Declination
0° 00' 00"
Sunlit
Object was in full shadow at epoch
Visualization orbit readout
Latitude
Unknown
Longitude
Unknown
Altitude
Unknown
Speed
Unknown
Apparent Right ascension
Unknown
Apparent Declination
Unknown
Sunlit
N/A
Visualization observer readout
Local Sidereal Time
13:05:55
Azimuth
Unknown
Elevation
Unknown
Doppler factor
Unknown
Orbital elements
Apogee altitude
697.254 km
Perigee altitude
662.752 km
Semi-major axis
7,058.14 km
Eccentricity
0.00244
Inclination
98.5919°
RAAN
212.6811°
Arg. of periapsis
230.7409°
True anomaly
129.37904°
Mean anomaly
129.1623°
Eccentric anomaly
129.27071°
Mean motion
3.66022 °/min
Orbital period
98.35 mins
BSTAR
0.0020484
Loading maneuver chart data...
Computing Atmospheric mass density...

Documentation

Showing up to 5 results
|